Date,TemperatureHighF,TemperatureAvgF,TemperatureLowF,DewpointHighF,DewpointAvgF,DewpointLowF,HumidityHigh,HumidityAvg,HumidityLow,PressureMaxIn,PressureMinIn,WindSpeedMaxMPH,WindSpeedAvgMPH,GustSpeedMaxMPH,PrecipitationSumIn
2013-1-1,29.5,18.6,6.0,26.2,9.4,-2.3,90,67,47,29.95,29.64,2,0,9,0.00
2013-1-2,17.2,7.7,-1.8,11.2,-0.5,-10.4,79,69,59,30.23,29.85,4,0,11,0.00
2013-1-3,6.0,-3.1,-8.6,-6.7,-12.3,-16.6,68,64,54,30.24,30.13,3,0,4,0.00
2013-1-10,28.8,27.8,26.6,22.4,21.9,20.7,80,78,76,30.53,30.51,1,0,3,0.00
2013-1-11,35.8,30.3,22.7,31.7,23.6,17.5,92,77,59,30.53,30.06,2,0,7,0.06
2013-1-12,43.6,38.1,34.1,40.1,35.9,32.0,95,92,84,30.08,30.02,2,0,9,0.05
2013-1-13,44.9,40.3,34.6,42.7,38.4,33.1,96,93,86,30.08,29.86,2,0,13,0.00
2013-1-14,46.7,40.6,29.8,43.9,33.8,23.1,95,78,44,30.27,29.75,3,0,10,0.00
2013-1-15,34.7,30.8,27.0,26.6,21.9,18.3,84,70,54,30.31,30.21,2,0,6,0.00
2013-1-16,31.9,29.6,27.9,28.2,25.4,22.5,90,84,79,30.20,29.75,1,0,6,0.00
2013-1-17,31.9,22.4,8.4,26.6,12.5,-3.7,84,66,43,30.16,29.75,3,1,11,0.00
2013-1-18,20.6,11.8,0.9,6.6,-3.9,-9.4,62,50,31,30.34,30.13,3,0,13,0.01
2013-1-19,40.2,31.8,20.6,24.6,17.4,5.5,81,56,47,30.21,29.70,4,2,23,0.01
2013-1-20,42.2,33.2,16.9,32.2,19.1,-1.8,86,56,41,29.94,29.36,5,2,23,0.02
2013-1-21,21.1,14.5,8.3,9.3,2.6,-4.7,78,60,40,30.03,29.79,1,0,10,0.00
2013-1-22,19.2,9.8,4.3,7.0,0.4,-11.7,80,66,43,30.05,29.77,2,0,11,0.00
2013-1-23,4.3,-1.9,-7.2,-5.6,-14.9,-19.3,67,54,40,30.18,30.05,4,1,12,0.00
2013-1-24,11.6,0.7,-10.3,-7.8,-13.7,-19.2,68,51,33,30.34,30.14,4,1,12,0.00
2013-1-25,16.9,7.4,0.0,3.1,-6.1,-10.7,73,54,37,30.37,30.09,2,0,11,0.00
2013-1-26,15.4,9.8,3.0,4.2,-1.8,-8.5,76,60,35,30.28,30.07,3,0,11,0.00
2013-1-27,20.2,13.0,6.7,4.7,-2.1,-7.6,66,52,31,30.49,30.28,5,1,12,0.00
2013-1-28,23.9,17.6,6.5,20.9,10.8,-3.8,88,75,51,30.46,29.95,4,0,9,0.00
2013-1-29,33.1,28.5,23.9,31.0,24.7,20.6,92,86,78,30.13,29.94,2,0,5,0.01
2013-1-30,55.6,44.3,33.4,53.6,42.2,31.3,95,92,85,29.95,29.23,4,1,12,0.11
2013-1-31,53.9,39.4,24.4,51.9,29.6,9.7,95,69,46,29.51,28.75,5,2,22,0.10
2013-2-1,24.1,18.7,12.4,11.0,6.6,0.9,76,59,46,30.08,29.51,2,0,9,0.00
2013-2-2,21.4,16.2,9.2,12.1,6.2,1.3,79,65,49,30.15,30.00,3,1,14,0.00
2013-2-3,31.6,18.8,9.3,17.5,8.9,1.5,79,66,46,30.00,29.72,4,1,9,0.01
2013-2-4,28.8,18.7,9.9,13.4,3.8,-7.8,84,57,22,29.90,29.70,2,0,14,0.00
2013-2-5,26.3,14.5,2.8,9.0,-0.7,-7.0,64,51,31,30.01,29.86,3,1,10,0.00
2013-2-6,30.7,22.2,12.4,22.2,8.8,-7.9,77,58,35,30.34,29.84,3,1,15,0.00
2013-2-7,20.3,11.6,4.8,-0.3,-5.5,-11.1,58,46,31,30.57,30.34,2,0,12,0.00
2013-2-8,26.4,18.0,11.7,22.8,11.9,-0.2,88,77,57,30.40,29.88,2,0,9,0.00
2013-2-9,21.3,12.1,5.4,15.0,2.0,-4.5,83,64,45,30.34,29.89,3,1,17,0.00
2013-2-10,25.4,12.2,-3.1,6.1,0.1,-10.2,76,60,34,30.48,30.24,3,1,11,0.01
2013-2-11,37.8,29.9,12.9,35.2,22.5,4.6,92,75,46,30.23,29.57,2,0,9,0.00
2013-2-12,38.2,34.9,31.9,30.1,26.8,22.8,81,72,60,29.81,29.56,2,0,9,0.00
2013-2-13,39.9,32.7,28.4,24.9,22.9,20.4,79,67,49,29.81,29.71,1,0,5,0.00
2013-2-14,36.6,31.8,29.0,26.1,22.4,18.2,84,69,49,29.91,29.70,1,0,5,0.00
2013-2-15,45.7,36.4,31.8,30.2,25.2,19.9,82,65,40,29.92,29.81,3,1,11,0.00
2013-2-16,34.9,27.7,19.7,22.6,12.9,1.5,78,55,36,29.97,29.88,2,0,11,0.00
2013-2-17,19.4,13.7,11.2,4.6,1.6,-2.3,73,58,46,29.87,29.66,3,1,16,0.00
2013-2-18,27.5,16.4,7.4,2.3,-2.9,-9.1,63,44,20,30.13,29.85,5,1,14,0.00
2013-2-19,45.4,29.8,14.6,30.5,15.1,-0.7,90,57,28,30.12,29.56,3,0,10,0.11
2013-2-20,32.9,27.8,22.5,30.2,22.9,17.0,91,82,68,29.74,29.55,0,0,4,0.06
2013-2-21,22.5,17.7,10.5,16.1,9.3,1.8,81,70,57,30.36,29.74,4,1,13,0.00
2013-2-22,35.6,26.8,14.3,24.0,19.6,10.1,85,75,58,30.41,30.19,2,0,9,0.12
2013-2-23,37.3,33.5,28.7,31.4,28.4,22.8,92,82,66,30.19,29.86,2,0,10,0.07
2013-2-24,35.9,32.8,30.9,33.5,30.5,28.2,93,91,86,29.92,29.74,1,0,6,0.07
2013-2-25,37.6,33.1,30.9,31.1,29.2,27.9,91,86,73,30.20,29.92,1,0,4,0.02
2013-2-26,41.2,34.9,30.3,32.6,29.1,24.6,92,80,57,30.29,30.03,4,0,14,0.00
2013-2-27,38.8,36.4,34.1,34.9,29.0,23.4,89,75,60,30.04,29.59,5,2,19,0.14
2013-2-28,45.7,37.3,31.9,34.0,31.0,28.6,91,79,57,29.59,29.51,1,0,6,0.01
2013-3-1,36.2,32.6,30.6,30.5,27.0,23.9,90,80,63,29.74,29.57,2,0,14,0.00
2013-3-2,32.7,28.9,23.6,27.4,23.9,19.7,89,82,68,29.75,29.70,1,0,9,0.03
2013-3-3,31.6,26.4,22.9,23.8,20.4,18.3,86,78,67,29.73,29.65,3,0,10,0.06
2013-3-4,29.7,26.0,23.9,21.5,18.7,16.0,83,74,58,29.87,29.68,4,1,13,0.03
2013-3-5,37.2,29.1,24.7,25.5,21.7,19.4,84,74,60,30.08,29.87,3,0,9,0.05
2013-3-6,42.8,33.6,24.2,30.0,24.8,20.3,87,71,51,30.14,30.05,4,0,12,0.01
2013-3-7,37.9,33.3,29.1,25.3,21.8,18.5,80,63,51,30.16,30.11,3,1,11,0.00
2013-3-8,40.5,31.5,26.9,25.9,23.3,21.4,83,72,53,30.30,30.11,2,0,12,0.01
2013-3-9,49.6,21.4,23.3,29.2,-34.1,-99.9,81,28,35,30.33,30.25,3,-464,11,0.00
2013-3-10,56.6,33.1,24.7,28.3,-14.3,-99.9,88,29,23,30.29,30.09,2,-307,11,0.00
2013-3-11,48.9,44.1,39.1,32.3,28.8,24.7,67,55,44,30.15,29.92,2,0,10,0.00
2013-3-12,52.3,46.6,36.5,49.2,41.8,29.0,92,84,55,29.94,29.62,2,0,14,1.05
2013-3-13,43.5,36.0,29.3,36.5,31.7,26.5,94,85,62,29.80,29.71,1,0,4,0.02
2013-3-14,30.6,24.8,18.1,27.7,15.2,3.3,90,67,50,29.90,29.70,3,1,10,0.01
2013-3-15,34.0,24.3,14.0,27.5,13.3,1.9,89,64,41,29.91,29.55,3,1,9,0.00
2013-3-16,31.6,24.2,17.3,21.4,13.2,8.5,81,63,42,29.90,29.71,3,0,6,0.02
2013-3-17,27.0,19.0,11.2,14.2,5.9,-0.5,77,58,37,30.33,29.89,4,1,14,0.00
2013-3-18,36.5,23.2,8.3,21.7,5.6,-2.1,73,49,24,30.43,30.09,5,1,10,0.00
2013-3-19,34.3,30.6,27.6,28.8,25.7,21.1,89,82,68,30.08,29.69,1,0,8,0.08
2013-3-20,34.1,28.8,23.5,26.7,21.9,14.8,89,76,60,29.71,29.62,2,0,4,0.02
2013-3-21,38.2,28.7,20.6,20.6,16.2,11.8,76,61,36,29.71,29.60,2,0,6,0.04
2013-3-22,41.2,28.2,19.2,24.2,18.2,11.6,84,67,40,29.74,29.62,3,0,6,0.00
2013-3-23,38.2,32.1,27.0,22.6,19.9,16.2,82,62,41,29.80,29.66,2,0,11,0.02
2013-3-24,40.5,33.8,26.7,26.6,22.5,20.1,77,63,47,29.84,29.77,2,0,6,0.00
2013-3-25,47.3,33.9,23.2,28.4,23.7,17.7,82,67,43,29.78,29.53,5,1,9,0.00
2013-3-26,47.4,36.5,29.8,27.4,23.8,17.2,80,62,33,29.78,29.57,3,0,10,0.00
2013-3-27,50.1,38.8,28.5,31.2,25.9,21.9,81,62,38,29.91,29.76,4,0,12,0.00
2013-3-28,51.0,40.1,33.8,36.2,32.1,29.7,92,75,48,30.03,29.90,3,0,12,0.01
2013-3-29,49.4,41.1,35.3,36.8,31.5,27.1,88,70,49,30.06,29.99,2,0,7,0.01
2013-3-30,55.9,40.5,27.5,32.3,22.0,11.4,89,53,20,30.09,30.01,6,1,11,0.00
2013-3-31,57.5,42.6,25.4,37.7,23.6,18.0,84,51,24,30.07,29.69,4,1,13,0.03
2013-4-1,46.4,39.1,28.1,40.7,28.8,8.7,92,69,30,29.76,29.48,4,1,10,0.06
2013-4-2,37.6,29.5,23.0,16.1,10.3,4.9,64,45,27,29.88,29.76,3,1,10,0.00
2013-4-3,44.8,33.8,23.5,14.4,8.8,2.6,57,37,19,30.17,29.87,3,1,10,0.00
2013-4-4,53.1,38.0,21.8,19.8,16.1,11.8,76,44,24,30.25,29.88,4,1,11,0.00
2013-4-5,50.7,41.3,32.2,27.9,20.8,12.2,59,44,28,29.95,29.74,3,1,9,0.00
2013-4-6,42.5,32.2,23.6,15.5,6.9,0.8,58,36,19,30.26,29.95,4,1,15,0.00
2013-4-7,61.8,46.8,30.3,35.1,22.1,13.6,58,39,22,30.22,29.78,5,2,12,0.00
2013-4-8,58.7,48.1,41.3,36.5,31.8,26.5,73,54,31,30.10,29.84,3,0,10,0.00
2013-4-9,56.7,48.4,42.3,46.7,40.2,36.4,94,75,49,29.99,29.75,4,0,10,0.05
2013-4-10,51.7,45.5,41.6,43.5,41.5,39.4,93,87,68,29.98,29.88,2,0,5,0.27
2013-4-11,42.5,36.9,32.1,39.6,24.0,17.0,92,61,43,30.16,29.89,2,0,9,0.01
2013-4-12,36.5,33.7,32.1,32.0,27.8,19.9,92,79,57,30.14,29.76,4,1,18,0.22
2013-4-13,53.5,41.4,33.7,40.1,34.4,31.6,93,78,53,29.88,29.74,2,0,6,0.01
2013-4-14,47.3,40.2,33.4,37.6,33.4,28.8,89,77,57,30.20,29.85,3,0,6,0.07
2013-4-15,64.3,45.8,28.7,43.2,30.6,24.3,88,60,27,30.33,30.16,6,1,9,0.00
2013-4-16,56.7,53.2,47.7,52.5,41.2,31.4,92,66,47,30.20,29.90,4,2,11,0.10
2013-4-17,57.6,47.6,36.6,41.9,31.6,26.0,85,56,31,30.32,30.05,4,1,11,0.00
2013-4-18,66.8,49.9,33.7,41.6,32.7,24.9,81,55,31,30.33,29.90,4,1,12,0.01
2013-4-19,76.8,64.3,46.0,59.2,51.8,41.6,90,65,45,29.90,29.39,5,2,13,0.74
2013-4-20,56.5,44.2,35.2,43.7,29.2,18.5,91,58,28,30.24,29.63,4,1,11,0.02
2013-4-21,47.0,37.2,29.3,19.7,14.8,7.9,60,41,22,30.66,30.25,5,1,15,0.00
2013-4-22,60.7,42.9,24.5,27.4,18.0,11.6,80,43,16,30.69,30.47,8,1,13,0.00
2013-4-23,57.5,44.4,29.0,36.5,28.5,18.8,79,55,33,30.49,30.11,3,1,8,0.00
2013-4-24,76.0,56.0,34.6,53.2,39.2,31.1,89,60,25,30.11,29.59,3,1,8,0.04
2013-4-25,59.3,49.4,39.2,52.4,30.5,19.3,87,51,24,30.25,29.59,6,1,10,0.06
2013-4-26,59.0,44.9,31.8,34.7,29.9,25.1,81,57,34,30.41,30.24,4,1,9,0.00
2013-4-27,65.3,48.8,31.6,36.9,27.1,7.3,87,49,14,30.41,30.25,6,1,9,0.00
2013-4-28,76.0,56.4,33.5,36.6,31.3,27.3,83,44,17,30.27,30.06,5,0,9,0.00
2013-4-29,68.8,58.4,49.4,43.9,38.9,33.4,64,49,31,30.16,30.09,2,0,6,0.00
2013-4-30,74.7,62.0,52.6,46.5,42.4,38.0,67,50,31,30.25,30.16,3,0,8,0.00
2013-5-1,82.6,65.1,48.3,45.7,38.6,31.9,70,41,21,30.39,30.22,4,0,7,0.00
2013-5-2,84.9,66.9,48.5,45.2,38.8,31.1,65,38,20,30.41,30.24,5,1,11,0.00
2013-5-3,78.8,62.0,48.9,41.2,35.4,28.8,58,39,18,30.44,30.27,2,0,6,0.00
2013-5-4,80.1,64.1,48.8,46.5,41.1,33.0,70,46,20,30.30,30.13,3,0,6,0.00
2013-5-5,83.4,64.4,47.6,41.2,35.7,30.2,64,38,17,30.21,30.05,1,0,6,0.00
2013-5-6,83.0,64.3,48.9,43.5,33.2,17.3,63,35,11,30.16,30.00,1,0,6,0.00
2013-5-7,88.8,67.8,50.4,52.8,40.4,25.4,77,42,14,30.09,29.97,3,0,6,0.00
2013-5-8,85.1,64.1,55.9,60.2,52.8,41.0,92,69,32,30.10,29.97,3,0,5,0.24
2013-5-9,74.0,63.6,55.4,61.5,55.6,50.2,94,77,47,29.97,29.80,2,0,5,0.22
2013-5-10,75.3,62.1,53.9,60.2,54.9,49.8,90,78,53,29.94,29.75,2,0,5,0.00
2013-5-11,71.8,63.2,55.6,63.4,57.2,47.1,93,81,59,29.75,29.56,1,0,7,0.27
2013-5-12,62.9,53.3,41.9,48.6,39.9,22.5,86,63,27,29.75,29.58,2,0,10,0.00
2013-5-13,52.5,45.6,40.5,35.5,29.8,25.0,79,55,38,30.01,29.74,2,0,7,0.00
2013-5-14,59.5,46.8,35.2,35.9,30.0,22.1,85,56,27,30.07,29.95,3,0,6,0.00
2013-5-15,67.8,49.8,32.8,51.0,37.9,27.4,86,67,29,30.00,29.56,3,0,7,0.06
2013-5-16,77.9,59.3,45.8,49.5,42.1,31.5,89,58,20,29.85,29.56,2,0,13,0.01
2013-5-17,67.6,56.1,47.9,42.9,39.1,33.3,81,55,30,30.17,29.85,2,0,10,0.00
2013-5-18,85.1,60.0,41.3,45.8,38.5,26.9,84,51,20,30.26,30.15,2,0,5,0.00
2013-5-19,71.6,58.4,51.6,55.3,49.6,40.5,92,74,49,30.23,30.08,1,0,7,0.13
2013-5-20,71.8,62.1,56.0,62.4,57.3,53.7,93,85,67,30.07,29.92,1,0,6,0.05
2013-5-21,77.6,64.1,58.0,67.6,58.6,55.2,94,83,64,29.93,29.76,2,0,8,0.48
2013-5-22,79.9,70.1,58.1,69.8,63.5,56.1,94,80,65,29.83,29.68,1,0,9,0.25
2013-5-23,77.6,70.6,61.8,66.4,63.3,59.3,92,78,60,29.73,29.65,1,0,10,0.34
2013-5-24,61.6,49.0,43.9,59.5,47.0,41.7,94,92,91,29.99,29.64,2,0,10,0.55
2013-5-25,44.5,42.3,39.1,42.6,40.3,37.0,94,92,91,29.97,29.87,3,1,9,0.68
2013-5-26,47.6,43.0,39.2,44.9,40.4,37.1,93,90,83,30.07,29.82,1,0,6,0.32
2013-5-27,69.3,52.0,36.9,49.3,38.8,32.4,95,66,27,30.13,30.04,3,0,7,0.27
2013-5-28,76.8,59.3,42.3,49.9,43.2,35.8,83,58,30,30.19,30.04,3,0,5,0.00
2013-5-29,72.5,61.4,54.8,64.6,57.5,47.6,95,87,70,30.06,29.88,1,0,5,0.37
2013-5-30,88.6,72.5,59.0,69.2,63.0,57.3,95,75,38,30.03,29.94,1,0,4,0.01
2013-5-31,93.2,76.5,61.0,70.4,63.8,57.7,91,67,43,30.03,29.85,1,0,5,0.00
2013-6-1,91.2,77.9,66.1,69.9,65.3,61.7,87,67,44,29.90,29.75,1,0,7,0.00
2013-6-2,90.1,74.1,62.7,71.2,66.0,60.0,91,77,50,29.78,29.61,1,0,7,0.81
2013-6-3,73.0,64.0,52.8,60.8,54.1,40.4,91,72,46,29.83,29.72,1,0,6,0.00
2013-6-4,65.8,54.1,46.0,45.9,42.7,38.8,85,66,44,30.08,29.83,1,0,4,0.00
2013-6-5,73.5,59.9,47.4,47.5,43.0,30.8,83,57,25,30.16,30.06,1,0,4,0.00
2013-6-6,70.6,58.3,52.5,55.7,49.8,43.0,92,74,47,30.12,30.02,1,0,6,0.03
2013-6-7,58.3,54.7,51.3,55.1,52.2,49.1,94,92,86,30.02,29.83,1,0,5,0.31
2013-6-8,61.2,57.2,53.2,57.6,54.7,51.5,95,91,83,29.98,29.72,0,0,3,0.03
2013-6-9,79.0,63.9,56.2,63.8,56.5,50.4,95,79,39,30.14,29.97,2,0,5,0.01
2013-6-10,75.6,63.3,53.6,63.0,55.7,48.9,92,77,54,30.16,29.91,2,0,6,0.02
2013-6-11,62.6,58.3,56.3,59.3,56.1,54.3,94,92,86,29.90,29.52,1,0,10,0.01
2013-6-12,66.3,58.8,53.8,57.0,54.1,51.2,95,85,61,29.81,29.56,1,0,5,0.01
2013-6-13,67.6,59.9,52.6,59.3,54.2,48.5,89,82,61,29.79,29.64,2,0,3,0.01
2013-6-14,76.1,64.3,53.5,60.1,53.4,49.2,90,70,42,29.82,29.65,1,0,6,0.30
2013-6-15,79.4,63.2,48.3,51.8,46.2,38.5,82,58,27,29.93,29.82,2,0,5,0.00
2013-6-16,70.3,60.9,54.2,59.6,53.3,45.2,92,77,54,29.88,29.66,1,0,4,0.16
2013-6-17,76.3,63.3,54.2,65.0,58.2,52.5,95,85,52,29.90,29.73,1,0,4,0.17
2013-6-18,70.6,59.2,51.9,56.5,50.9,45.4,90,75,44,29.95,29.88,1,0,4,0.03
2013-6-19,70.3,58.1,45.8,48.6,44.0,38.5,87,63,36,30.14,29.95,2,0,7,0.00
2013-6-20,81.2,62.7,46.5,53.9,46.9,40.7,81,60,27,30.21,30.13,2,0,4,0.00
2013-6-21,87.4,69.3,53.6,61.4,52.8,46.6,81,59,31,30.20,30.14,1,0,5,0.00
2013-6-22,82.4,68.8,59.5,67.6,61.4,52.8,94,78,55,30.15,30.03,1,0,5,0.36
2013-6-23,88.0,73.7,65.8,75.6,68.3,64.0,94,84,59,30.04,29.90,1,0,8,0.20
2013-6-24,91.6,75.1,66.8,74.5,68.4,63.4,93,81,52,29.94,29.83,2,0,6,0.96
2013-6-25,88.4,72.5,65.5,73.5,68.0,63.7,95,87,59,29.89,29.70,1,0,6,0.21
2013-6-26,79.9,70.1,66.1,71.0,66.8,63.9,95,90,68,29.76,29.69,0,0,2,0.62
2013-6-27,89.3,74.3,65.5,72.1,67.1,62.3,95,80,47,29.75,29.65,1,0,3,0.08
2013-6-28,73.5,53.0,62.4,68.2,28.7,-99.9,95,70,74,29.66,29.33,7,-209,13,0.13
2013-6-29,82.0,69.2,62.9,69.1,64.8,61.1,95,87,58,29.62,29.44,1,0,9,0.60
2013-6-30,86.5,73.3,62.1,70.1,65.7,60.7,96,79,49,29.88,29.62,1,0,5,0.14
2013-7-1,72.3,68.1,63.5,68.9,65.5,61.7,94,91,85,30.03,29.88,0,0,4,0.40
2013-7-2,82.8,68.2,59.9,72.6,64.9,58.5,96,90,67,30.08,30.00,0,0,3,0.23
2013-7-3,89.7,75.8,68.9,74.8,71.2,67.1,95,87,58,30.11,30.05,1,0,6,0.39
2013-7-4,92.1,77.0,70.9,76.5,72.2,68.9,95,86,57,30.13,30.02,1,0,6,0.40
2013-7-5,91.2,75.8,69.3,77.7,71.2,66.7,93,86,58,30.10,29.99,1,0,6,0.15
2013-7-6,88.0,76.6,68.8,73.0,69.2,64.2,93,79,50,30.03,29.94,0,0,3,0.00
2013-7-7,87.8,74.8,66.1,74.3,67.4,60.6,92,79,54,29.99,29.88,1,0,4,0.22
2013-7-8,80.9,73.1,69.4,71.8,69.4,66.3,95,88,66,30.00,29.88,0,0,4,0.11
2013-7-9,87.8,75.3,65.8,73.3,68.4,63.7,94,80,56,30.03,29.93,0,0,4,0.00
2013-7-10,81.4,74.8,72.0,73.4,69.7,66.1,91,84,70,29.92,29.68,1,0,7,0.16
2013-7-11,81.1,72.8,63.2,70.9,65.1,56.2,93,78,51,29.97,29.68,1,0,5,0.21
2013-7-12,80.7,69.4,58.9,63.9,59.4,55.1,89,72,49,30.15,29.97,1,0,6,0.00
2013-7-13,83.2,71.5,60.1,68.6,63.3,57.1,92,77,57,30.24,30.16,0,0,3,0.00
2013-7-14,90.5,77.9,68.9,73.9,69.3,65.4,92,76,54,30.27,30.17,0,0,2,0.00
2013-7-15,93.8,79.7,69.1,73.5,67.7,60.9,91,70,36,30.19,30.10,0,0,5,0.00
2013-7-16,91.0,78.8,67.9,72.2,66.2,63.2,86,67,42,30.18,30.12,1,0,5,0.00
2013-7-17,96.6,80.8,68.4,75.4,69.7,63.5,88,71,47,30.14,29.92,0,0,4,0.00
2013-7-24,57.6,55.8,52.8,48.6,48.0,47.4,84,75,69,30.00,29.92,1,0,4,0.00
2013-7-25,72.7,59.6,46.2,55.3,49.8,43.3,92,72,50,30.09,30.01,1,0,3,0.00
2013-7-26,57.8,57.4,57.0,53.0,52.8,52.5,85,84,84,30.06,30.05,1,0,3,0.00
2013-8-8,68.6,68.0,66.8,66.6,65.8,63.8,94,93,90,29.95,29.91,2,0,3,1.00
2013-8-9,76.3,72.1,68.4,72.9,69.6,66.5,95,92,83,29.90,29.72,0,0,2,0.18
2013-8-10,77.7,67.5,57.8,68.0,56.3,46.9,95,71,36,30.00,29.76,1,0,4,0.00
2013-8-11,82.4,66.2,54.4,59.2,54.9,50.3,86,69,41,30.04,29.94,1,0,1,0.00
2013-8-12,82.2,67.9,56.2,63.9,57.6,51.2,88,71,43,29.98,29.84,1,0,3,0.00
2013-8-13,74.4,66.2,62.7,66.3,61.7,57.2,92,86,72,29.84,29.63,1,0,3,0.17
2013-8-14,67.1,60.1,53.1,61.6,54.5,49.2,93,82,67,29.93,29.64,1,0,2,0.05
2013-8-15,77.2,61.6,47.6,57.7,51.3,45.4,94,72,40,30.05,29.93,1,0,4,0.00
2013-8-16,82.0,64.4,53.5,61.5,51.0,-99.9,85,67,40,30.15,30.04,0,-25,4,0.00
2013-8-17,79.6,66.8,56.6,61.0,56.2,52.5,87,70,44,30.25,30.16,1,0,4,0.00
2013-8-18,80.5,67.0,55.6,63.8,58.0,52.8,92,75,48,30.24,30.04,1,0,3,0.00
2013-8-19,86.5,70.5,58.4,65.5,59.4,54.4,87,70,42,30.04,29.92,1,0,3,0.00
2013-8-20,89.3,71.9,60.1,66.5,61.1,55.9,88,71,41,30.05,29.95,0,0,2,0.00
2013-8-21,88.0,73.8,62.1,68.7,63.4,57.5,86,71,50,30.10,29.95,1,0,2,0.00
2013-8-22,88.0,73.0,63.2,70.5,64.8,59.2,92,77,50,29.97,29.76,1,0,4,0.72
2013-8-23,72.7,63.9,55.6,64.5,55.7,48.7,94,77,46,30.13,29.84,3,0,5,0.01
2013-8-24,82.0,62.9,48.9,58.0,50.5,43.4,89,67,28,30.30,30.14,3,0,5,0.00
2013-8-25,82.4,66.0,51.3,61.2,54.1,47.0,90,68,36,30.34,30.08,1,0,6,0.02
2013-8-26,73.2,68.0,62.9,67.1,63.3,59.6,92,85,77,30.09,29.83,1,0,5,0.29
2013-8-27,85.3,73.1,67.9,71.3,67.6,65.7,94,84,55,29.87,29.82,0,0,3,0.01
2013-8-28,87.6,74.0,64.3,71.3,66.9,61.9,93,80,52,29.90,29.81,0,0,3,0.00
2013-8-29,85.3,71.6,64.0,66.9,63.9,60.7,90,78,49,30.01,29.90,1,0,3,0.00
2013-8-30,88.0,74.0,62.6,69.4,65.5,60.2,93,76,52,29.96,29.72,0,0,3,0.00
2013-8-31,74.0,71.2,67.9,71.4,68.4,65.5,94,91,80,29.76,29.70,0,0,1,0.24
2013-9-1,87.0,74.3,67.9,71.9,68.4,65.9,95,83,55,29.82,29.75,0,0,1,0.00
2013-9-2,79.6,71.6,63.9,72.9,67.3,61.8,94,87,70,29.79,29.62,2,0,3,0.35
2013-9-3,74.7,65.4,61.8,65.4,61.0,57.5,95,86,69,29.76,29.65,0,0,3,0.01
2013-9-4,78.6,66.5,57.2,60.7,58.0,53.1,93,76,46,29.87,29.76,1,0,6,0.00
2013-9-5,66.1,58.3,46.8,58.3,47.3,37.2,92,70,38,30.14,29.83,1,0,6,0.08
2013-9-6,72.8,55.7,41.5,47.6,42.7,37.3,88,65,31,30.23,30.01,1,0,5,0.00
2013-9-7,68.9,60.1,53.5,56.5,50.6,46.2,84,71,55,30.02,29.80,1,0,6,0.00
2013-9-8,62.6,56.8,45.5,54.9,46.2,37.7,92,69,45,30.08,29.73,2,0,7,0.14
2013-9-9,70.1,55.6,42.1,50.8,44.4,38.2,88,68,40,30.16,30.01,1,0,10,0.00
2013-9-10,76.8,65.8,59.0,69.4,61.0,50.1,95,85,70,30.03,29.92,1,0,7,0.81
2013-9-11,91.8,77.5,70.6,76.8,71.4,65.9,93,83,59,29.97,29.84,3,0,7,0.35
2013-9-12,79.9,71.6,67.4,71.2,67.4,65.0,93,87,71,29.88,29.57,1,0,6,0.43
2013-9-13,67.6,58.2,51.6,65.8,56.2,49.9,94,93,90,29.84,29.57,1,0,6,0.29
2013-9-14,62.7,53.7,48.0,53.2,49.5,44.8,95,86,61,30.05,29.83,1,0,4,0.02
2013-9-15,70.1,55.8,44.1,57.1,48.9,41.6,92,79,54,30.11,29.98,1,0,5,0.00
2013-9-16,56.0,50.2,40.3,53.0,45.1,36.0,94,83,57,30.30,29.97,1,0,6,0.32
2013-9-17,66.1,48.9,36.5,46.2,39.9,33.6,91,74,40,30.44,30.29,1,0,4,0.00
2013-9-18,75.4,55.2,40.6,51.9,45.5,38.5,95,73,35,30.29,30.09,0,0,4,0.00
2013-9-19,80.3,61.0,47.7,58.5,50.7,44.6,91,71,36,30.11,29.98,0,0,4,0.00
2013-9-20,83.8,63.7,49.4,61.7,54.1,47.2,93,74,37,30.04,29.85,1,0,7,0.00
2013-9-21,77.4,70.1,63.2,61.0,56.4,46.8,90,64,37,29.87,29.53,2,1,13,0.09
2013-9-22,64.5,56.3,46.8,60.2,51.2,41.3,94,83,67,29.87,29.52,1,0,5,0.56
2013-9-23,52.2,46.4,41.2,42.8,39.9,36.6,91,78,63,30.03,29.87,1,0,6,0.00
2013-9-24,63.4,52.3,46.4,45.6,41.3,37.8,86,67,45,30.02,29.86,1,0,6,0.00
2013-9-25,66.8,53.3,42.2,51.1,45.2,39.3,91,76,51,29.97,29.87,1,0,7,0.00
2013-9-26,64.2,52.4,42.1,50.8,45.7,39.1,90,79,58,30.13,29.97,2,0,5,0.00
2013-9-27,68.3,56.1,49.9,52.8,49.8,46.8,89,80,53,30.26,30.13,3,0,6,0.00
2013-9-28,76.0,56.3,44.2,58.0,48.6,-99.9,92,78,46,30.32,30.19,2,-6,9,0.00
2013-9-29,78.3,60.0,46.4,57.8,51.2,44.0,95,75,44,30.19,30.01,0,0,2,0.00
2013-9-30,77.4,59.8,49.4,57.1,51.2,46.3,91,75,43,30.06,29.93,2,0,2,0.00
2013-10-1,80.7,61.2,46.5,58.9,52.7,44.0,92,76,43,29.97,29.83,1,0,2,0.00
2013-10-2,81.8,63.0,53.8,62.8,54.7,50.2,92,76,43,29.94,29.78,1,0,2,0.00
2013-10-3,76.7,59.7,49.4,54.8,48.9,44.0,88,70,36,30.07,29.93,1,0,4,0.00
2013-10-4,62.9,56.0,48.5,56.4,50.9,44.8,89,83,71,30.07,30.00,1,0,3,0.00
2013-10-5,66.4,57.0,53.6,54.4,51.0,49.2,93,81,60,30.10,30.03,0,0,2,0.02
2013-10-6,58.7,55.3,52.3,55.1,51.4,46.9,95,87,74,30.10,29.96,1,0,5,0.20
2013-10-7,79.0,62.8,52.6,64.3,57.3,50.3,93,84,52,29.96,29.50,2,0,6,0.64
2013-10-8,59.2,49.9,43.1,50.5,41.2,36.1,92,73,47,30.34,29.85,5,1,6,0.00
2013-10-9,68.4,50.1,36.6,45.4,38.7,33.6,92,68,33,30.42,30.30,2,0,2,0.00
2013-10-10,66.6,41.8,41.1,50.0,13.4,-99.9,86,55,43,30.30,30.14,1,-198,5,0.00
2013-10-11,71.3,17.9,57.6,51.7,-60.9,-99.9,64,13,32,30.14,30.07,0,-735,1,0.00
2013-10-12,78.1,18.8,53.6,55.3,-60.6,-99.9,93,13,35,30.29,30.12,1,-740,2,0.00
2013-10-13,72.7,33.3,50.5,48.2,-20.5,-99.9,83,33,38,30.36,30.24,1,-457,4,0.00
2013-10-14,56.7,54.9,50.2,54.0,50.6,45.6,94,86,74,30.28,30.20,1,0,5,0.11
2013-10-15,65.0,55.9,51.0,57.0,52.7,49.3,95,89,70,30.24,30.04,2,0,4,0.00
2013-10-16,67.6,58.5,54.2,53.8,51.6,49.2,91,79,56,30.04,29.77,1,0,4,0.01
2013-10-17,68.8,59.4,53.2,56.6,51.2,45.7,94,76,47,29.79,29.63,3,0,7,0.18
2013-10-18,66.9,54.5,47.0,54.4,47.2,37.3,95,78,47,29.87,29.56,1,0,6,0.63
2013-10-19,63.4,52.6,42.6,47.7,42.0,38.0,89,69,48,29.88,29.60,1,0,4,0.09
2013-10-20,58.3,50.2,40.8,47.9,39.1,32.2,90,67,38,29.97,29.59,2,0,6,0.00
2013-10-21,63.5,51.3,39.2,43.2,38.5,34.5,86,64,44,30.03,29.83,1,0,5,0.00
2013-10-22,56.9,50.2,38.9,47.6,38.9,29.4,86,66,48,29.82,29.64,2,0,5,0.06
2013-10-23,54.5,44.6,37.9,36.8,33.5,29.3,83,66,41,29.75,29.57,1,0,4,0.00
2013-10-24,44.8,39.5,32.1,38.0,33.8,27.6,92,80,62,29.84,29.63,2,0,5,0.03
2013-10-25,46.1,40.7,36.8,37.7,30.7,24.8,91,69,46,30.10,29.85,2,0,5,0.01
2013-10-26,48.6,41.5,34.1,34.9,31.0,27.5,83,67,45,30.09,29.76,4,1,12,0.00
2013-10-27,48.3,43.2,34.6,35.9,31.9,27.4,83,65,50,30.00,29.72,2,0,10,0.00
2013-10-28,46.1,39.1,29.4,39.7,29.7,19.3,87,70,41,30.36,29.98,2,0,12,0.05
2013-10-29,47.9,33.5,24.5,26.9,22.3,18.9,84,65,36,30.46,30.32,4,0,9,0.00
2013-10-30,47.3,38.5,29.7,33.9,30.6,23.2,85,74,57,30.31,30.14,0,0,5,0.01
2013-10-31,59.5,45.7,34.9,57.2,42.9,30.7,95,90,81,30.18,29.56,2,0,12,0.25
2013-11-1,68.1,60.5,53.6,59.9,52.1,39.8,92,76,42,29.59,29.22,3,2,17,0.29
2013-11-2,54.1,46.2,37.0,44.8,40.3,33.8,91,81,63,29.85,29.57,1,0,7,0.07
2013-11-3,41.6,32.7,26.4,33.8,20.3,13.7,88,61,35,30.45,29.85,2,0,7,0.00
2013-11-4,41.9,30.0,21.4,20.5,17.7,13.9,80,62,33,30.66,30.46,3,0,8,0.00
2013-11-5,50.2,39.0,25.8,34.5,26.3,17.8,80,62,42,30.63,30.39,3,0,5,0.00
2013-11-6,58.3,51.2,42.1,43.8,39.0,33.4,72,63,53,30.38,29.85,3,1,7,0.00
2013-11-7,56.0,47.3,33.7,51.0,41.3,23.6,92,80,59,29.85,29.67,2,1,8,0.26
2013-11-8,42.9,35.6,30.9,30.2,25.6,20.8,87,68,49,30.08,29.82,2,0,8,0.00
2013-11-9,43.9,37.0,28.7,33.1,24.6,20.2,85,62,40,30.17,29.90,2,0,3,0.02
2013-11-10,45.1,41.0,37.2,37.4,34.8,28.9,89,79,68,29.89,29.66,2,0,5,0.06
2013-11-11,42.8,39.2,32.8,32.5,27.5,24.5,81,63,51,30.07,29.81,2,1,9,0.00
2013-11-12,34.1,28.3,23.5,30.4,18.0,13.0,87,65,55,30.24,29.88,2,0,6,0.02
2013-11-13,33.5,26.6,19.4,19.4,13.4,9.4,67,58,38,30.31,30.02,3,0,6,0.01
2013-11-14,44.5,37.2,30.7,28.9,22.4,17.8,70,55,44,30.02,29.98,3,1,10,0.01
2013-11-15,53.2,43.5,38.3,25.3,19.2,13.5,53,39,25,30.13,30.02,3,1,6,0.00
2013-11-16,59.3,45.5,38.3,30.3,26.8,22.8,68,49,28,30.24,30.12,2,0,5,0.00
2013-11-17,59.9,50.5,37.0,50.1,41.1,28.7,78,70,64,30.21,29.60,3,1,14,0.00
2013-11-18,63.4,52.2,40.9,56.7,40.7,26.8,88,66,43,29.63,29.32,5,1,6,0.23
2013-11-19,40.6,33.3,29.0,28.2,18.3,14.1,74,54,48,30.35,29.63,2,1,10,0.00
2013-11-20,38.8,29.3,23.2,18.9,17.2,15.1,77,61,39,30.62,30.35,4,1,8,0.00
2013-11-21,44.3,32.4,18.8,27.3,17.5,10.2,81,57,27,30.61,30.32,2,0,5,0.00
2013-11-22,48.9,41.4,38.6,44.5,36.6,27.0,92,84,62,30.31,29.78,2,0,3,0.08
2013-11-23,43.5,32.4,21.9,40.2,21.6,8.2,88,65,48,29.96,29.75,3,0,8,0.00
2013-11-24,22.9,18.5,12.8,9.5,1.4,-6.5,62,47,35,30.25,29.84,3,1,11,0.00
2013-11-25,30.6,20.4,8.1,13.1,3.9,-6.3,66,49,29,30.38,30.13,3,1,9,0.00
2013-11-26,34.7,32.1,29.7,30.3,22.7,11.8,89,69,44,30.22,29.92,2,1,5,0.00
2013-11-27,37.6,34.1,30.3,36.0,32.0,27.2,94,92,88,29.93,29.34,2,0,6,0.86
2013-11-28,30.4,21.8,12.9,26.7,12.0,4.8,88,67,44,30.41,29.50,2,0,4,0.05
2013-11-29,26.0,16.3,9.5,12.0,6.6,2.6,76,66,46,30.75,30.41,5,1,6,0.01
2013-11-30,29.7,20.3,8.6,15.6,8.5,1.7,76,61,42,30.77,30.30,5,1,6,0.00
2013-12-1,38.9,33.4,28.8,30.0,25.8,15.5,89,74,56,30.29,29.99,2,0,4,0.01
2013-12-2,38.0,34.1,29.7,33.0,30.0,26.9,90,85,76,30.00,29.85,0,0,0,0.00
2013-12-3,45.8,35.7,29.7,34.7,29.7,26.1,91,79,64,29.97,29.86,1,0,4,0.00
2013-12-4,40.6,33.1,27.3,28.6,25.6,22.2,85,74,57,30.13,29.96,1,0,4,0.00
2013-12-5,53.8,42.6,28.5,49.8,38.2,24.0,89,84,80,30.10,29.78,2,0,5,0.00
2013-12-6,52.6,39.5,33.5,49.4,35.0,26.1,92,84,69,30.12,29.83,2,0,4,0.58
2013-12-7,34.6,30.3,26.3,29.1,18.3,11.3,86,61,41,30.43,30.08,2,0,9,0.00
2013-12-8,29.1,26.3,23.5,16.7,12.2,8.5,65,55,45,30.55,30.42,2,0,7,0.00
2013-12-9,35.9,17.6,27.0,31.8,-30.6,-99.9,87,42,51,30.42,29.83,3,-441,10,0.01
2013-12-10,34.3,28.9,20.5,30.0,19.7,9.7,85,68,53,29.91,29.76,2,0,5,0.00
2013-12-11,29.5,21.9,16.1,17.8,12.8,7.5,76,68,54,30.14,29.92,2,0,10,0.00
2013-12-12,18.1,14.8,7.4,8.1,2.0,-4.3,69,57,39,30.28,29.94,3,1,7,0.00
2013-12-13,18.9,13.4,2.6,13.2,3.5,-8.5,82,64,50,30.43,29.88,2,1,13,0.00
2013-12-14,10.7,5.8,-1.0,5.7,-4.6,-9.9,80,62,45,30.59,30.09,3,0,7,0.00
2013-12-15,24.8,20.0,10.9,20.0,15.6,6.2,86,83,77,30.09,29.51,2,0,6,0.00
2013-12-16,20.2,12.6,0.9,12.7,2.5,-8.3,84,65,44,30.23,29.67,4,0,9,0.00
2013-12-17,18.1,6.0,-6.8,13.3,-1.2,-14.3,82,72,60,30.24,29.98,6,1,10,0.00
2013-12-18,27.0,21.3,11.2,21.3,15.4,6.5,83,78,66,29.98,29.90,0,0,2,0.00
2013-12-19,35.6,30.8,25.8,29.1,22.9,19.5,84,73,59,30.03,29.87,3,1,9,0.01
2013-12-20,36.6,32.0,24.4,33.0,27.8,20.5,88,84,78,30.03,29.83,1,0,3,0.13
2013-12-21,47.3,34.2,25.4,42.7,31.1,21.8,93,88,81,29.94,29.75,2,0,6,0.37
2013-12-22,31.6,28.3,24.5,29.4,25.9,21.7,92,90,89,29.94,29.71,0,0,0,0.00
2013-12-23,36.8,31.7,29.1,33.6,29.5,26.0,94,92,82,30.14,29.93,0,0,2,0.00
2013-12-24,29.1,19.0,7.7,26.3,13.5,-99.9,89,80,74,30.32,30.12,1,0,7,0.00
2013-12-25,14.9,9.0,3.7,10.1,2.3,-4.3,82,74,64,30.54,30.32,1,0,6,0.00
2013-12-26,27.3,23.0,14.8,23.7,18.8,9.7,87,84,79,30.37,30.06,0,0,5,0.00
2013-12-27,31.6,25.9,22.4,23.6,21.1,17.7,88,82,71,30.19,30.12,1,0,4,0.00
2013-12-28,35.9,32.0,22.1,30.9,26.2,17.7,88,79,73,30.12,29.94,3,0,9,0.02
2013-12-29,39.8,34.1,28.1,33.6,30.0,25.5,92,85,67,29.95,29.55,2,0,4,0.49
2013-12-30,35.8,22.5,8.8,33.7,14.0,-3.5,92,70,50,30.19,29.54,4,1,12,0.03
2013-12-31,16.5,10.9,7.2,11.0,1.6,-4.9,84,66,54,30.19,29.98,2,0,3,0.00
2014-1-1,20.2,12.9,0.7,10.9,2.1,-11.7,83,62,45,30.44,30.11,1,0,3,0.00
2014-1-2,1.3,-4.8,-10.0,-10.9,-13.7,-17.7,70,65,54,30.43,30.03,1,0,4,0.00